Date String (YYYY-MM-DD hh:mm:ss) UTC,Instrument flags,absolute air pressure of the measurement (hPa),sample flow rate (lpm),inlet stack bypass flow (lpm),air temperature of the measurement (°C),ambient temperature measured by the external sensor (°C),aerosol sample conditioner tube jacket temperature (°C),OPC LED temperature (°C),internal box temperature (°C),relative humidity of the measurement (%),span deviation,mass concentration of particles derived from Lorenz-Mie calculation of OPC scattering (μg/m³),mass concentration of particles derived from Lorenz-Mie calculation of OPC scattering (μg/m³),mass concentration of particles derived from Lorenz-Mie calculation of OPC scattering (μg/m³)
DateTimeUTC,F1_M11,P_M11,Q1_M11,Q2_M11,T1_M11,T2_M11,T3_M11,T4_M11,T5_M11,U1_M11,ZSPAN_M11,X0_M11,X2_M11,X1_M11
2023-09-14 06:00:00,SystemResetWarning,0829.8,5.00,000.00,028.8,027.4,000.0,037.1,030.4,16.6,0000.0,0009.52,0004.90,0004.41
2023-09-14 06:01:00,SystemResetWarning,0829.8,5.01,000.00,028.8,027.4,000.0,037.1,030.4,16.6,0000.0,0009.49,0004.88,0004.41
2023-09-14 06:02:00,SystemResetWarning,0829.8,5.00,000.00,028.8,027.4,000.0,037.1,030.4,16.6,0000.0,0009.38,0004.87,0004.42
2023-09-14 06:03:00,SystemResetWarning,0829.8,5.00,000.00,028.8,027.4,000.0,037.1,030.4,16.6,0000.0,0008.90,0004.82,0004.42
2023-09-14 06:04:00,SystemResetWarning,0829.8,5.00,000.00,028.8,027.4,000.0,037.2,030.4,16.6,0000.0,0008.92,0004.83,0004.43
2023-09-14 06:05:00,SystemResetWarning,0829.8,5.00,000.00,028.8,027.5,000.0,037.2,030.4,16.6,0000.0,0008.87,0004.82,0004.43
2023-09-14 06:06:00,SystemResetWarning,0829.8,5.00,000.00,028.9,027.5,000.0,037.2,030.5,16.7,0000.0,0008.28,0004.82,0004.43
2023-09-14 06:07:00,SystemResetWarning,0829.8,5.00,000.00,028.9,027.5,000.0,037.2,030.5,16.7,0000.0,0008.17,0004.81,0004.42
2023-09-14 06:08:00,SystemResetWarning,0829.8,4.99,000.00,028.9,027.1,000.0,037.2,030.4,16.7,0000.0,0007.87,0004.81,0004.42
2023-09-14 06:09:00,SystemResetWarning,0829.7,5.00,000.00,028.8,025.2,000.0,037.1,029.8,16.9,0000.0,0007.92,0004.84,0004.42
2023-09-14 06:10:00,SystemResetWarning,0829.7,5.00,000.00,028.6,024.3,000.0,037.0,029.6,17.3,0000.0,0007.93,0004.85,0004.43
2023-09-14 06:11:00,SystemResetWarning,0829.7,5.00,000.00,028.5,024.4,000.0,037.0,029.5,17.2,0000.0,0008.02,0004.86,0004.44
2023-09-14 06:12:00,SystemResetWarning,0829.7,5.01,000.00,028.4,024.6,000.0,037.0,029.5,17.1,0000.0,0008.30,0004.92,0004.44
2023-09-14 06:13:00,SystemResetWarning,0829.8,5.01,000.00,028.3,025.0,000.0,036.9,029.5,17.0,0000.0,0008.38,0004.95,0004.46
2023-09-14 06:14:00,SystemResetWarning,0829.7,5.00,000.00,028.3,025.3,000.0,036.9,029.6,17.4,0000.0,0008.48,0004.98,0004.48
2023-09-14 06:15:00,SystemResetWarning,0829.8,5.00,000.00,028.3,025.6,000.0,036.9,029.6,17.3,0000.0,0008.51,0004.98,0004.48
2023-09-14 06:16:00,SystemResetWarning,0829.8,5.00,000.00,028.2,025.9,000.0,036.8,029.6,17.1,0000.0,0008.48,0004.99,0004.48
2023-09-14 06:17:00,SystemResetWarning,0829.8,5.00,000.00,028.2,026.1,000.0,036.8,029.7,17.1,0000.0,0008.68,0005.01,0004.49
2023-09-14 06:18:00,SystemResetWarning,0829.8,4.99,000.00,028.2,026.2,000.0,036.8,029.7,17.2,0000.0,0009.06,0005.02,0004.50
2023-09-14 06:19:00,SystemResetWarning,0829.8,5.00,000.00,028.2,026.4,000.0,036.8,029.8,17.1,0000.0,0009.61,0005.02,0004.52
2023-09-14 06:20:00,SystemResetWarning,0829.8,5.00,000.00,028.3,026.5,000.0,036.7,029.8,17.6,0000.0,0009.87,0005.02,0004.52
2023-09-14 06:21:00,SystemResetWarning,0829.8,5.00,000.00,028.3,026.6,000.0,036.7,029.8,17.3,0000.0,0010.08,0005.04,0004.54
2023-09-14 06:22:00,SystemResetWarning,0829.8,4.99,000.00,028.3,026.6,000.0,036.7,029.8,17.6,0000.0,0010.21,0005.02,0004.54
2023-09-14 06:23:00,SystemResetWarning,0829.8,4.99,000.00,028.3,026.7,000.0,036.7,029.9,17.5,0000.0,0010.18,0004.97,0004.55
2023-09-14 06:24:00,SystemResetWarning,0829.8,5.01,000.00,028.3,026.7,000.0,036.7,029.9,17.5,0000.0,0010.18,0004.96,0004.53
2023-09-14 06:25:00,SystemResetWarning,0829.8,5.00,000.00,028.3,026.8,000.0,036.7,029.9,17.3,0000.0,0010.26,0004.95,0004.51
2023-09-14 06:26:00,SystemResetWarning,0829.9,5.00,000.00,028.3,026.8,000.0,036.7,029.9,17.0,0000.0,0010.37,0004.95,0004.52
2023-09-14 06:27:00,SystemResetWarning,0829.9,5.01,000.00,028.3,026.9,000.0,036.7,029.9,17.3,0000.0,0010.38,0004.96,0004.52
2023-09-14 06:28:00,SystemResetWarning,0829.9,5.00,000.00,028.3,026.9,000.0,036.7,029.9,17.6,0000.0,0010.16,0004.97,0004.53
2023-09-14 06:29:00,SystemResetWarning,0829.9,5.00,000.00,028.4,026.9,000.0,036.7,029.9,17.1,0000.0,0009.59,0004.97,0004.53
2023-09-14 06:30:00,SystemResetWarning,0829.9,5.00,000.00,028.4,026.9,000.0,036.7,030.0,16.8,0000.0,0009.55,0005.03,0004.53
2023-09-14 06:31:00,SystemResetWarning,0829.9,5.00,000.00,028.4,026.9,000.0,036.7,030.0,16.7,0000.0,0009.31,0005.02,0004.52
2023-09-14 06:32:00,SystemResetWarning,0829.9,5.00,000.00,028.4,027.0,000.0,036.7,030.0,17.1,0000.0,0009.32,0005.04,0004.50
2023-09-14 06:33:00,SystemResetWarning,0829.9,5.00,000.00,028.4,027.0,000.0,036.7,030.0,17.1,0000.0,0009.41,0005.09,0004.51
2023-09-14 06:34:00,SystemResetWarning,0829.9,5.00,000.00,028.4,027.0,000.0,036.8,030.0,17.0,0000.0,0009.54,0005.12,0004.50
2023-09-14 06:35:00,SystemResetWarning,0829.9,4.99,000.00,028.4,027.0,000.0,036.8,030.0,17.0,0000.0,0010.05,0005.13,0004.51
2023-09-14 06:36:00,SystemResetWarning,0829.9,4.99,000.00,028.4,027.0,000.0,036.8,030.0,16.8,0000.0,0009.99,0005.16,0004.53
2023-09-14 06:37:00,SystemResetWarning,0829.9,5.00,000.00,028.5,027.0,000.0,036.8,030.0,16.8,0000.0,0009.91,0005.17,0004.52
2023-09-14 06:38:00,SystemResetWarning,0829.9,5.01,000.00,028.5,027.0,000.0,036.8,030.0,17.1,0000.0,0010.64,0005.19,0004.51
2023-09-14 06:39:00,SystemResetWarning,0830.0,5.01,000.00,028.5,027.0,000.0,036.8,030.1,17.4,0000.0,0010.87,0005.19,0004.51
2023-09-14 06:40:00,SystemResetWarning,0829.9,5.00,000.00,028.5,027.0,000.0,036.8,030.1,16.9,0000.0,0011.17,0005.24,0004.51
2023-09-14 06:41:00,SystemResetWarning,0830.0,5.00,000.00,028.5,027.1,000.0,036.8,030.1,17.0,0000.0,0010.76,0005.20,0004.52
2023-09-14 06:42:00,SystemResetWarning,0830.0,4.99,000.00,028.5,027.1,000.0,036.8,030.1,17.1,0000.0,0010.70,0005.18,0004.51
2023-09-14 06:43:00,SystemResetWarning,0829.9,5.00,000.00,028.5,027.1,000.0,036.8,030.1,17.0,0000.0,0010.45,0005.13,0004.51
2023-09-14 06:44:00,SystemResetWarning,0829.9,5.00,000.00,028.5,027.1,000.0,036.8,030.1,17.0,0000.0,0010.18,0005.07,0004.50
2023-09-14 06:45:00,SystemResetWarning,0829.9,5.00,000.00,028.5,027.1,000.0,036.8,030.1,16.9,0000.0,0010.07,0005.05,0004.48
2023-09-14 06:46:00,SystemResetWarning,0829.9,5.01,000.00,028.5,027.1,000.0,036.8,030.1,17.1,0000.0,0009.65,0005.03,0004.47
2023-09-14 06:47:00,SystemResetWarning,0829.9,5.01,000.00,028.5,027.1,000.0,036.8,030.1,16.8,0000.0,0009.60,0004.97,0004.46
2023-09-14 06:48:00,SystemResetWarning,0829.9,4.99,000.00,028.5,027.1,000.0,036.9,030.1,16.8,0000.0,0009.46,0004.92,0004.44
2023-09-14 06:49:00,SystemResetWarning,0829.9,4.99,000.00,028.5,027.1,000.0,036.9,030.1,16.8,0000.0,0008.83,0004.90,0004.44
2023-09-14 06:50:00,SystemResetWarning,0829.9,4.99,000.00,028.6,027.1,000.0,036.9,030.1,16.9,0000.0,0008.73,0004.88,0004.43
2023-09-14 06:51:00,SystemResetWarning,0829.9,5.01,000.00,028.6,027.1,000.0,036.9,030.1,16.9,0000.0,0008.46,0004.84,0004.41
2023-09-14 06:52:00,SystemResetWarning,0829.9,5.01,000.00,028.6,027.1,000.0,036.9,030.1,16.7,0000.0,0008.38,0004.80,0004.40
2023-09-14 06:53:00,SystemResetWarning,0829.9,5.00,000.00,028.6,027.1,000.0,036.9,030.1,16.7,0000.0,0008.69,0004.81,0004.39
2023-09-14 06:54:00,SystemResetWarning,0829.9,5.00,000.00,028.6,027.1,000.0,036.9,030.2,16.7,0000.0,0008.74,0004.81,0004.39
2023-09-14 06:55:00,SystemResetWarning,0829.9,5.00,000.00,028.6,027.1,000.0,036.9,030.2,16.8,0000.0,0008.67,0004.80,0004.38
2023-09-14 06:56:00,SystemResetWarning,0829.9,5.00,000.00,028.6,027.1,000.0,036.9,030.2,16.9,0000.0,0008.64,0004.83,0004.38
2023-09-14 06:57:00,SystemResetWarning,0829.9,4.99,000.00,028.6,027.1,000.0,036.9,030.2,16.7,0000.0,0008.72,0004.84,0004.38
2023-09-14 06:58:00,SystemResetWarning,0829.9,5.00,000.00,028.6,027.2,000.0,036.9,030.2,16.7,0000.0,0009.02,0004.85,0004.37
2023-09-14 06:59:00,SystemResetWarning,0829.9,5.01,000.00,028.6,027.2,000.0,036.9,030.2,16.6,0000.0,0009.17,0004.91,0004.38
